Location: Famechon
(49.7599°N, 2.0615°E)
Time: 19:39:04
(UTC+00:00)

NOAA 16 DEB - Visible Passes

Search period start: 02 March 2024 00:00
Search period end: 12 March 2024 00:00
Orbit: 708 x 762 km, 99.1° (Epoch: 02 March)

Date Brightness Start Highest point End Pass type
(mag) Time Alt. Az. Time Alt. Az. Time Alt. Az.
05 Mar ? 22:47:52 10° N 22:47:59 10° N 22:47:59 10° N visible
06 Mar ? 22:01:52 10° N 22:02:02 11° N 22:02:02 11° N visible
07 Mar ? 22:55:13 10° N 22:55:37 12° N 22:55:37 12° N visible
08 Mar ? 22:09:04 10° N 22:09:36 13° N 22:09:36 13° N visible
09 Mar ? 21:23:23 10° NNE 21:23:34 11° NNE 21:23:34 11° NNE visible
09 Mar ? 23:02:26 10° N 23:03:08 13° NNW 23:03:08 13° NNW visible
10 Mar ? 22:16:10 10° N 22:17:03 15° N 22:17:03 15° N visible
11 Mar ? 21:30:21 10° NNE 21:30:58 14° NNE 21:30:58 14° NNE visible
11 Mar ? 23:09:33 10° N 23:10:31 14° NNW 23:10:31 14° NNW visible
